EW6338 Weather Reports


Display with metric or nautical units.
time (UTC)temp
F
wind
direction
speed
MPH
gust
MPH
rain 1hr
in
rain 24hr
in
rain mn
in
humidity
%
barometer
mb
20260905234528 61 130 0.0 0.0 0.00 0.04 0.04 94 1011.0
20260905233026 61 130 0.0 0.0 0.00 0.04 0.04 94 1010.9
20260905231527 62 130 0.0 0.0 0.00 0.04 0.04 93 1010.9
20260905230025 62 130 0.0 0.0 0.00 0.04 0.04 93 1010.8
20260905224524 63 130 0.0 0.0 0.00 0.04 0.04 92 1010.8
20260905223024 64 130 0.0 0.0 0.00 0.04 0.04 92 1010.7
20260905221533 64 130 0.0 0.0 0.00 0.04 0.04 93 1010.7
20260905220021 64 130 0.0 0.0 0.00 0.04 0.04 93 1010.4
20260905214519 64 130 0.0 0.0 0.00 0.04 0.04 94 1010.0
20260905213029 64 130 0.0 1.0 0.00 0.04 0.04 94 1010.2
20260905211521 64 131 0.0 0.0 0.00 0.04 0.04 94 1010.1
20260905210025 64 131 0.0 0.0 0.01 0.04 0.04 93 1010.2
20260905204515 64 131 0.0 0.0 0.03 0.04 0.04 94 1009.9
20260905203016 64 131 0.0 0.0 0.04 0.04 0.04 93 1010.0
20260905201524 64 131 0.0 0.0 0.04 0.04 0.04 91 1009.8
20260905200013 64 131 0.0 1.0 0.03 0.03 0.03 89 1009.9
20260905194512 66 113 0.0 3.0 0.01 0.01 0.01 84 1009.8
20260905193012 68 103 0.0 3.0 0.00 0.00 0.00 81 1009.6
20260905191510 69 91 0.0 3.0 0.00 0.00 0.00 79 1009.5
20260905190008 69 95 0.0 3.0 0.00 0.00 0.00 79 1009.4
20260905184508 70 129 0.0 3.0 0.00 0.00 0.00 80 1009.4
20260905183006 70 113 0.0 1.0 0.00 0.00 0.00 79 1009.2
20260905181507 70 77 0.0 1.0 0.00 0.00 0.00 77 1009.3
20260905180006 70 103 0.0 4.0 0.00 0.00 0.00 78 1009.3
20260905174512 69 124 0.0 2.0 0.00 0.00 0.00 80 1009.2
20260905173017 69 128 0.0 1.0 0.00 0.00 0.00 83 1009.2
20260905171504 67 65 0.0 5.0 0.00 0.00 0.00 86 1009.4
20260905170005 66 49 0.0 3.0 0.00 0.00 0.00 85 1009.3
20260905164502 68 64 0.0 2.0 0.00 0.00 0.00 82 1009.2
20260905163105 70 82 0.0 3.0 0.00 0.00 0.00 79 1008.9
20260905161600 70 130 0.0 1.0 0.00 0.00 0.00 80 1009.0
20260905160059 71 133 0.0 2.0 0.00 0.00 0.00 78 1008.9
20260905154559 71 150 0.0 2.0 0.00 0.00 0.00 79 1009.0
20260905153057 71 113 0.0 1.0 0.00 0.00 0.00 78 1008.9
20260905151557 71 357 0.0 1.0 0.00 0.00 0.00 80 1008.8
20260905150055 70 138 0.0 0.0 0.00 0.00 0.00 81 1008.9
20260905144554 70 23 0.0 1.0 0.00 0.00 0.00 81 1008.9
20260905143054 70 129 0.0 1.0 0.00 0.00 0.00 80 1008.9
20260905141605 70 130 0.0 0.0 0.00 0.00 0.00 81 1008.9
20260905140053 70 148 0.0 1.0 0.00 0.00 0.00 83 1008.8
20260905134550 68 332 0.0 2.0 0.00 0.00 0.00 85 1008.7
20260905133044 67 151 0.0 1.0 0.00 0.00 0.00 88 1008.6
20260905131556 66 15 0.0 0.0 0.00 0.00 0.00 92 1008.4
20260905130039 65 15 0.0 0.0 0.00 0.00 0.00 92 1008.3
20260905124545 64 15 0.0 0.0 0.00 0.00 0.00 94 1008.2
20260905123045 64 15 0.0 0.0 0.00 0.00 0.00 94 1008.2
20260905121535 63 15 0.0 0.0 0.00 0.00 0.00 95 1008.1
20260905120033 63 15 0.0 0.0 0.00 0.00 0.00 94 1008.1
20260905114539 62 15 0.0 0.0 0.00 0.00 0.00 94 1007.8
20260905113028 62 15 0.0 0.0 0.00 0.00 0.00 94 1007.7
20260905111531 62 18 0.0 0.0 0.00 0.00 0.00 94 1007.6
20260905110026 61 18 0.0 0.0 0.00 0.00 0.00 95 1007.5
20260905104524 61 18 0.0 0.0 0.00 0.00 0.00 95 1007.4
20260905103030 60 18 0.0 0.0 0.00 0.00 0.00 94 1007.3
20260905101527 61 18 0.0 0.0 0.00 0.00 0.00 94 1007.1
20260905100022 61 18 0.0 0.0 0.00 0.00 0.00 94 1007.1
20260905094521 61 18 0.0 0.0 0.00 0.00 0.00 94 1007.0
20260905093020 60 18 0.0 0.0 0.00 0.00 0.00 94 1006.9
20260905091520 60 18 0.0 0.0 0.00 0.00 0.00 94 1006.8
20260905090022 60 18 0.0 0.0 0.00 0.00 0.00 93 1006.7
20260905084546 60 18 0.0 0.0 0.00 0.00 0.00 93 1006.7
20260905083020 61 18 0.0 0.0 0.00 0.00 0.00 92 1006.7
20260905081516 61 18 0.0 0.0 0.00 0.00 0.00 92 1006.6
20260905080013 61 18 0.0 0.0 0.00 0.00 0.00 91 1006.7
20260905074511 62 18 0.0 0.0 0.00 0.00 0.00 90 1006.5
20260905073015 62 18 0.0 0.0 0.00 0.00 0.00 90 1006.7
20260905071507 63 233 0.0 0.0 0.00 0.00 0.00 90 1006.7
20260905070005 63 233 0.0 0.0 0.00 0.00 0.00 89 1006.8
20260905064503 64 233 0.0 0.0 0.00 0.00 0.00 88 1007.0
20260905063005 64 129 0.0 0.0 0.00 0.00 0.00 88 1007.0
20260905061503 64 143 0.0 0.0 0.00 0.00 0.00 88 1007.1
20260905060002 64 143 0.0 0.0 0.00 0.00 0.00 88 1007.2
20260905054501 64 143 0.0 0.0 0.00 0.00 0.00 88 1007.1
20260905053112 64 143 0.0 0.0 0.00 0.00 0.00 88 1007.1
20260905051559 64 216 0.0 0.0 0.00 0.00 0.00 89 1007.3
20260905050059 63 216 0.0 0.0 0.00 0.00 0.00 89 1007.1
20260905044557 64 216 0.0 0.0 0.00 0.00 0.00 88 1007.0
20260905043057 64 216 0.0 0.0 0.00 0.00 0.00 87 1007.2
20260905041553 65 157 0.0 0.0 0.00 0.00 0.00 86 1007.2
20260905040050 65 157 0.0 1.0 0.00 0.00 0.00 85 1007.0
20260905034551 66 103 0.0 0.0 0.00 0.00 0.00 84 1007.2
20260905033054 66 103 0.0 1.0 0.00 0.00 0.00 83 1007.2
20260905031553 66 118 0.0 1.0 0.00 0.00 0.00 85 1007.2
20260905030051 65 266 0.0 0.0 0.00 0.00 0.00 85 1007.2
20260905024617 65 266 0.0 0.0 0.00 0.00 0.00 85 1007.3
20260905023051 65 266 0.0 0.0 0.00 0.00 0.00 85 1007.3
20260905021547 66 55 0.0 0.0 0.00 0.00 0.00 85 1007.7
20260905020050 66 55 0.0 0.0 0.00 0.00 0.00 85 1007.6
20260905014546 66 55 0.0 0.0 0.00 0.00 0.00 84 1007.8
20260905013048 66 55 0.0 0.0 0.00 0.00 0.00 85 1007.7
20260905011554 66 55 0.0 0.0 0.00 0.00 0.00 86 1007.7
20260905010045 66 55 0.0 0.0 0.00 0.00 0.00 86 1007.8
20260905004551 66 55 0.0 0.0 0.00 0.00 0.00 85 1007.7
20260905003043 67 55 0.0 0.0 0.00 0.00 0.00 83 1007.8
20260905001543 68 55 0.0 0.0 0.00 0.00 0.00 82 1007.7
20260905000042 69 55 0.0 0.0 0.00 0.00 0.00 81 1007.6